Snowfall_Accumulation
0.0 0.0 0.0 0.0 0.0 0.0 0.0 0.0 0.0 0.0 0.0 0.0 0.0 0.0 0.0 0.0 0.0 0.0 0.0 0.0 0.0 0.0 0.0 0.0 0.0 0.0 0.0 0.0 0.0 0.0 0.0 0.0 0.0 0.0 0.0 0.0 0.0 0.0 0.0 0.0 0.0 0.0 0.0 0.0
0.0 0.0 0.0 0.0 0.0 0.0 0.0 0.0 0.0 0.0 0.0 0.0 0.0 0.0 0.0 0.0 0.0 0.0 0.0 0.0 0.0 0.0 0.0 0.0 0.0 0.0 0.0 0.0 0.0 0.0 0.0 0.0 0.0 0.0 0.0 0.0 0.0 0.0 0.0 0.0 0.0 0.0 0.0 0.0
0.1 0.0 0.0 1.1 0.0 0.0 0.0 0.0 0.0 0.0 0.0 0.0 0.0 0.0 0.0 0.0 0.0 0.0 0.0 0.0 0.0 0.0 0.0 0.0 0.0 0.0 0.0 0.0 0.0 0.0 0.0 0.0 0.0 0.0 0.0 0.0 0.0 0.0 0.0 0.0 0.0 0.0 0.0 0.0
1.2 0.3 13.4 0.1 0.0 0.0 0.0 0.0 0.0 0.0 0.0 0.0 0.0 0.0 0.0 0.0 0.0 0.0 0.0 0.0 0.0 0.0 0.0 0.0 0.0 0.0 0.0 0.0 0.0 0.0 0.0 0.0 0.0 0.0 0.0 0.0 0.0 0.0 0.0 0.0 0.0 0.0 0.0 0.0
6.8 2.4 0.0 0.0 0.0 0.0 0.0 0.0 0.0 0.0 0.0 0.0 0.0 0.0 0.0 0.0 0.0 0.0 0.0 0.0 0.0 0.0 0.0 0.0 0.0 0.0 0.0 0.0 0.0 0.0 0.0 0.0 0.0 0.0 0.0 0.0 0.0 0.0 0.0 0.0 0.0 0.0 0.0 0.0
7.0 7.2 4.1 0.0 0.0 0.0 0.0 0.1 0.0 0.0 0.0 0.0 0.0 0.0 0.0 0.0 0.0 0.0 0.0 0.0 0.0 0.0 0.0 0.0 0.0 0.0 0.0 0.0 0.0 0.0 0.0 0.0 0.0 0.0 0.0 0.0 0.0 0.0 0.0 0.0 0.0 0.3 0.0 0.0
1.0 5.0 2.2 0.0 0.0 0.0 0.3 0.0 0.0 0.0 0.0 0.0 0.0 0.0 0.0 0.0 0.0 0.0 0.0 0.0 0.0 0.0 0.0 0.0 0.0 0.0 0.0 0.0 0.0 0.0 0.0 0.0 0.0 0.0 0.0 0.0 0.0 0.0 0.0 0.0 0.0 0.1 0.1 0.1
1.1 3.3 9.2 0.0 0.0 0.0 0.1 0.0 0.0 0.0 0.0 0.0 0.0 0.0 0.0 0.0 0.0 0.0 0.0 0.0 0.0 0.0 0.0 0.0 0.0 0.0 0.0 0.0 0.0 0.0 0.0 0.0 0.0 0.0 0.0 0.0 0.0 0.0 0.0 0.0 0.1 0.1 0.1 0.5
0.1 0.8 0.0 0.0 0.0 0.0 0.0 0.0 0.0 0.0 0.0 0.0 0.0 0.0 0.0 0.0 0.0 0.0 0.0 0.0 0.0 0.0 0.0 0.0 0.0 0.0 0.0 0.0 0.0 0.0 0.0 0.1 0.0 0.0 0.0 0.0 0.0 0.0 0.4 0.0 0.4 0.2 0.9 1.2
0.1 0.0 0.0 0.0 0.0 0.0 0.0 0.0 0.0 0.0 0.0 0.0 0.0 0.0 0.0 0.0 0.0 0.0 0.0 0.0 0.0 0.0 0.0 0.0 0.0 0.0 0.0 0.0 0.0 0.0 0.0 0.0 0.0 0.0 0.0 0.1 0.4 0.5 0.6 0.8 1.1 1.5 1.9 2.3
0.0 0.0 0.0 0.0 0.0 0.0 0.0 0.0 0.0 0.0 0.0 0.0 0.0 0.0 0.0 0.0 0.0 0.0 0.0 0.0 0.0 0.0 0.0 0.0 0.0 0.0 0.0 0.0 0.0 0.0 0.0 0.0 0.0 0.1 0.0 0.1 0.5 1.5 1.5 1.8 1.5 2.0 2.1 1.9
0.4 0.0 0.0 0.0 0.0 0.0 0.0 0.0 0.0 0.0 0.0 0.0 0.0 0.0 0.0 0.0 0.0 0.0 0.0 0.0 0.0 0.0 0.0 0.0 0.0 0.0 0.0 0.0 0.0 0.0 0.0 0.0 0.2 0.2 0.3 0.4 0.6 1.2 nan nan nan nan nan 1.9
0.0 0.0 0.0 0.0 0.0 0.0 0.0 0.0 0.0 0.0 0.0 0.0 0.0 0.0 0.0 0.0 0.0 nan 0.0 0.0 0.0 0.0 0.0 0.0 0.0 0.0 0.0 0.0 0.0 0.0 0.0 0.0 0.2 0.2 0.4 0.5 0.6 0.9 2.9 4.6 nan nan nan nan
0.0 0.0 0.0 0.0 0.0 0.0 0.0 0.0 0.0 0.0 0.0 0.0 0.0 0.0 0.0 0.0 0.0 0.0 0.0 0.0 0.0 0.0 0.0 0.0 0.0 0.1 0.1 0.0 0.0 0.2 0.1 0.0 0.6 0.8 1.1 1.8 2.1 2.5 2.6 3.7 5.8 4.5 nan nan
0.0 0.0 0.0 0.0 0.0 0.0 0.0 0.0 0.0 0.0 0.0 0.0 0.0 0.0 0.0 0.0 0.0 0.0 0.0 0.0 0.0 0.0 0.0 0.0 0.0 0.0 0.0 0.0 0.0 0.0 0.2 0.5 0.5 0.7 0.8 0.7 1.1 1.5 1.4 1.7 1.9 2.1 2.0 1.4
0.0 0.0 0.0 0.0 0.0 0.0 0.0 0.0 0.0 0.0 0.0 0.0 0.0 0.0 0.0 0.0 0.0 0.0 0.0 0.0 0.1 0.2 0.1 1.4 0.7 0.3 0.1 0.0 0.0 0.0 0.3 0.0 0.3 0.7 1.1 1.3 1.2 1.4 1.4 1.4 1.4 1.3 1.3 1.3
0.0 0.0 0.0 0.0 0.0 0.0 0.0 0.0 0.0 0.0 0.1 0.1 0.2 0.1 0.1 0.1 0.1 0.1 0.0 0.2 0.7 0.9 0.9 0.5 1.8 1.4 0.9 0.2 0.1 0.5 0.4 0.5 0.0 0.6 0.9 1.1 1.4 1.6 1.4 1.8 1.8 1.5 1.9 2.9
0.0 0.0 0.0 0.0 0.0 0.0 0.0 0.0 0.2 0.2 0.3 0.3 0.2 0.3 1.3 1.4 0.5 0.5 0.5 0.4 1.1 2.3 0.7 1.2 1.5 1.8 1.3 0.2 0.1 0.3 0.5 0.6 0.6 0.9 0.9 1.7 1.3 1.0 1.4 1.5 1.4 1.7 2.1 2.4
0.0 0.0 0.0 0.0 0.0 0.0 0.1 0.3 0.2 0.1 0.8 0.3 1.5 2.2 2.5 3.2 1.7 2.2 2.3 5.0 5.3 1.1 2.2 1.1 0.0 0.2 0.1 0.2 0.1 0.5 0.6 1.0 0.9 0.8 0.8 3.3 2.0 1.1 1.9 2.3 1.9 2.4 1.9 2.5
0.1 0.0 0.1 0.3 0.2 0.3 1.0 1.0 0.9 1.0 0.8 0.7 3.9 5.1 3.7 6.9 5.9 6.6 3.5 2.1 0.9 1.6 0.2 0.1 0.1 0.1 0.1 0.0 0.1 0.3 0.5 1.1 0.9 1.6 2.3 1.4 2.9 4.4 2.5 4.8 2.5 3.1 5.7 4.4
0.5 0.3 0.5 0.9 2.3 3.1 4.9 4.5 4.0 3.4 4.6 6.1 5.8 7.8 7.9 5.2 5.4 6.6 2.2 1.1 0.3 0.2 0.1 0.0 0.2 0.3 0.1 0.1 0.1 0.7 1.4 2.4 2.7 1.8 2.2 5.4 7.3 5.0 5.0 5.3 5.0 6.4 7.8 5.9
0.1 0.4 1.9 1.6 0.5 0.9 1.4 0.5 0.2 3.2 3.5 5.9 8.5 9.4 7.4 2.2 4.0 3.2 4.7 0.7 0.9 0.1 0.5 0.5 0.4 0.8 0.8 2.1 0.4 2.2 1.2 1.5 2.5 2.7 3.4 5.6 6.0 9.6 9.9 7.8 8.2 8.9 9.5 9.6
0.1 0.0 0.2 1.1 0.9 0.1 0.1 0.3 4.1 2.8 6.9 6.6 7.5 3.2 1.2 0.8 0.7 1.2 1.6 0.2 0.4 1.5 0.4 0.8 2.4 2.7 3.0 3.6 3.2 4.1 4.7 5.4 5.8 5.5 5.9 9.7 9.3 15.3 8.4 8.0 9.0 10.1 15.4 10.7
0.1 0.1 0.1 0.1 0.1 0.0 0.1 0.1 0.1 0.2 5.1 2.5 4.2 6.2 0.3 2.4 2.9 0.4 0.5 3.0 3.3 8.4 6.7 2.8 4.8 3.8 4.3 6.4 6.8 8.3 7.6 8.6 9.4 11.0 5.6 7.6 15.7 12.4 9.8 14.9 10.6 12.1 13.8 12.1
0.5 0.6 0.2 0.6 0.1 0.8 0.1 0.1 0.2 0.3 0.2 0.3 0.2 0.2 0.2 0.8 2.4 1.7 2.3 2.9 4.8 3.1 4.2 5.2 4.4 5.3 10.5 10.9 10.2 11.1 11.2 10.0 11.5 13.2 10.1 14.8 14.3 20.7 17.7 14.9 18.8 17.4 19.0 16.7
0.1 0.8 0.7 0.1 0.4 0.6 0.6 0.7 0.9 0.9 0.8 2.3 1.8 6.3 4.1 2.4 2.2 2.4 3.9 5.0 3.2 5.5 4.6 11.4 16.5 15.2 13.3 9.7 11.0 11.8 9.3 7.1 9.9 10.7 12.9 13.3 14.1 12.1 15.0 14.1 18.7 22.4 27.7 30.9
0.7 0.2 0.6 0.6 0.5 0.7 0.7 0.8 1.3 1.8 2.3 3.9 4.7 4.9 3.3 5.9 8.3 5.8 7.4 11.0 11.1 13.1 13.7 15.9 14.8 10.2 9.2 13.5 11.9 11.1 10.7 11.0 10.2 9.9 16.6 18.7 18.9 25.4 25.2 25.6 29.7 30.2 27.5 25.5
Water_Equivalent
0.00 0.00 0.00 0.00 0.00 0.00 0.00 0.00 0.01 0.00 0.00 0.00 0.00 0.00 0.00 0.00 0.00 0.00 0.00 0.00 0.00 0.00 0.00 0.00 0.00 0.00 0.00 0.00 0.00 0.00 0.00 0.00 0.00 0.00 0.00 0.00 0.00 0.00 0.00 0.00 0.00 0.00 0.00 0.00
0.00 0.00 0.00 0.00 0.00 0.00 0.00 0.00 0.00 0.00 0.00 0.00 0.00 0.00 0.00 0.00 0.00 0.00 0.00 0.00 0.00 0.00 0.00 0.00 0.00 0.00 0.00 0.00 0.00 0.00 0.00 0.00 0.00 0.00 0.00 0.00 0.00 0.00 0.00 0.00 0.00 0.00 0.00 0.00
0.02 0.00 0.00 0.26 0.00 0.00 0.00 0.00 0.00 0.00 0.00 0.00 0.00 0.00 0.00 0.00 0.00 0.00 0.00 0.00 0.00 0.00 0.00 0.00 0.00 0.00 0.00 0.00 0.00 0.00 0.00 0.00 0.00 0.00 0.00 0.00 0.00 0.00 0.00 0.00 0.00 0.00 0.00 0.00
0.33 0.09 2.41 0.02 0.00 0.00 0.00 0.00 0.00 0.00 0.00 0.00 0.00 0.00 0.00 0.00 0.00 0.00 0.00 0.00 0.00 0.00 0.00 0.00 0.00 0.00 0.00 0.00 0.00 0.00 0.00 0.00 0.00 0.00 0.00 0.00 0.00 0.00 0.00 0.00 0.00 0.00 0.00 0.00
1.66 0.61 0.01 0.00 0.00 0.00 0.00 0.00 0.00 0.00 0.00 0.00 0.00 0.00 0.00 0.00 0.00 0.00 0.00 0.00 0.00 0.00 0.00 0.00 0.00 0.00 0.00 0.00 0.00 0.00 0.00 0.00 0.00 0.00 0.00 0.00 0.00 0.00 0.00 0.00 0.00 0.00 0.00 0.00
1.90 1.49 0.80 0.00 0.00 0.00 0.00 0.04 0.00 0.00 0.00 0.00 0.00 0.00 0.00 0.00 0.00 0.00 0.00 0.00 0.00 0.00 0.00 0.00 0.00 0.00 0.00 0.00 0.00 0.00 0.00 0.00 0.00 0.00 0.00 0.00 0.00 0.00 0.00 0.00 0.00 0.12 0.01 0.01
0.29 1.20 0.52 0.00 0.00 0.00 0.08 0.01 0.00 0.00 0.00 0.00 0.00 0.00 0.00 0.00 0.00 0.00 0.00 0.00 0.00 0.00 0.00 0.00 0.00 0.00 0.00 0.01 0.00 0.00 0.00 0.00 0.00 0.00 0.00 0.00 0.00 0.00 0.00 0.00 0.01 0.03 0.02 0.02
0.30 0.78 1.65 0.00 0.00 0.00 0.03 0.00 0.00 0.00 0.00 0.00 0.00 0.00 0.00 0.00 0.00 0.00 0.00 0.00 0.00 0.00 0.00 0.00 0.00 0.00 0.00 0.01 0.01 0.00 0.01 0.00 0.00 0.00 0.00 0.00 0.00 0.00 0.00 0.01 0.03 0.04 0.05 0.18
0.04 0.21 0.00 0.00 0.00 0.00 0.00 0.00 0.00 0.00 0.00 0.00 0.00 0.00 0.00 0.00 0.00 0.00 0.00 0.00 0.00 0.00 0.00 0.00 0.00 0.00 0.00 0.00 0.00 0.01 0.01 0.02 0.01 0.00 0.01 0.00 0.00 0.01 0.13 0.01 0.13 0.05 0.28 0.35
0.02 0.00 0.00 0.00 0.00 0.00 0.00 0.00 0.00 0.00 0.00 0.00 0.00 0.00 0.00 0.00 0.00 0.00 0.00 0.00 0.00 0.00 0.00 0.00 0.00 0.00 0.00 0.00 0.00 0.00 0.00 0.00 0.01 0.02 0.01 0.02 0.17 0.21 0.25 0.28 0.39 0.52 0.59 0.70
0.00 0.00 0.00 0.00 0.00 0.00 0.00 0.00 0.00 0.00 0.00 0.00 0.00 0.00 0.00 0.00 0.00 0.00 0.00 0.00 0.00 0.00 0.00 0.00 0.00 0.00 0.00 0.00 0.00 0.00 0.00 0.00 0.00 0.02 0.01 0.05 0.19 0.60 0.60 0.72 0.58 0.71 0.73 0.66
0.14 0.00 0.00 0.00 0.00 0.00 0.00 0.00 0.00 0.00 0.00 0.00 0.00 0.00 0.00 0.00 0.00 0.00 0.00 0.00 0.00 0.00 0.00 0.00 0.00 0.00 0.00 0.00 0.00 0.00 0.00 0.01 0.06 0.07 0.11 0.14 0.22 0.46 nan nan nan nan nan 0.77
0.00 0.00 0.00 0.00 0.00 0.00 0.00 0.00 0.00 0.00 0.00 0.00 0.00 0.00 0.00 0.00 0.00 nan 0.00 0.00 0.00 0.00 0.00 0.00 0.00 0.00 0.00 0.00 0.00 0.00 0.00 0.00 0.10 0.09 0.15 0.20 0.24 0.34 0.88 1.62 nan nan nan nan
0.00 0.00 0.00 0.00 0.00 0.00 0.00 0.00 0.00 0.00 0.00 0.00 0.00 0.00 0.00 0.00 0.00 0.00 0.00 0.00 0.00 0.00 0.00 0.00 0.00 0.03 0.02 0.00 0.01 0.07 0.03 0.00 0.23 0.33 0.43 0.71 0.85 0.97 0.97 1.23 1.64 1.32 nan nan
0.00 0.00 0.00 0.00 0.00 0.00 0.00 0.00 0.00 0.00 0.00 0.00 0.00 0.00 0.00 0.00 0.00 0.00 0.00 0.00 0.00 0.00 0.00 0.00 0.00 0.00 0.00 0.00 0.00 0.00 0.07 0.18 0.21 0.27 0.31 0.29 0.41 0.49 0.45 0.52 0.57 0.57 0.53 0.37
0.00 0.00 0.00 0.00 0.00 0.00 0.00 0.00 0.00 0.00 0.00 0.00 0.00 0.00 0.00 0.00 0.00 0.00 0.00 0.00 0.02 0.05 0.02 0.35 0.12 0.07 0.02 0.01 0.01 0.01 0.12 0.00 0.13 0.27 0.38 0.44 0.38 0.43 0.41 0.40 0.39 0.36 0.35 0.36
0.00 0.01 0.00 0.00 0.00 0.00 0.00 0.00 0.00 0.00 0.01 0.03 0.03 0.02 0.01 0.01 0.01 0.01 0.01 0.03 0.15 0.20 0.19 0.11 0.42 0.41 0.22 0.07 0.03 0.18 0.17 0.20 0.00 0.23 0.31 0.33 0.41 0.45 0.39 0.50 0.50 0.41 0.53 0.84
0.00 0.00 0.00 0.00 0.00 0.00 0.01 0.01 0.03 0.05 0.06 0.06 0.04 0.10 0.40 0.39 0.09 0.09 0.09 0.08 0.24 0.52 0.18 0.28 0.35 0.44 0.32 0.06 0.03 0.12 0.19 0.20 0.22 0.29 0.28 0.48 0.38 0.31 0.41 0.41 0.37 0.44 0.56 0.62
0.00 0.00 0.00 0.00 0.00 0.00 0.02 0.05 0.04 0.03 0.21 0.09 0.44 0.56 0.64 0.86 0.41 0.53 0.55 1.23 1.31 0.24 0.51 0.26 0.00 0.04 0.03 0.04 0.04 0.15 0.21 0.35 0.27 0.25 0.26 1.09 0.59 0.32 0.52 0.67 0.54 0.70 0.50 0.61
0.02 0.01 0.03 0.06 0.04 0.07 0.19 0.20 0.20 0.26 0.22 0.20 1.09 1.35 0.91 1.67 1.52 1.63 0.83 0.47 0.20 0.40 0.04 0.03 0.03 0.01 0.02 0.00 0.04 0.10 0.19 0.39 0.27 0.48 0.68 0.38 0.86 1.32 0.72 1.58 0.66 0.86 1.67 1.24
0.12 0.08 0.13 0.22 0.55 0.83 1.28 1.23 1.00 0.76 1.09 1.53 1.51 1.89 1.84 1.26 1.28 1.59 0.51 0.26 0.07 0.05 0.02 0.00 0.05 0.08 0.02 0.02 0.03 0.23 0.46 0.80 0.87 0.54 0.64 1.61 2.20 1.46 1.37 1.58 1.44 1.89 2.30 1.68
0.03 0.10 0.48 0.40 0.11 0.20 0.34 0.12 0.05 0.76 0.80 1.36 2.06 2.27 1.70 0.48 0.87 0.69 1.08 0.16 0.20 0.04 0.14 0.13 0.10 0.27 0.26 0.70 0.14 0.74 0.36 0.46 0.73 0.77 0.93 1.59 1.64 2.58 2.62 2.11 2.17 2.47 2.55 2.61
0.02 0.01 0.05 0.26 0.21 0.02 0.03 0.08 0.97 0.69 1.47 1.40 1.59 0.76 0.30 0.21 0.19 0.31 0.38 0.04 0.11 0.50 0.10 0.22 0.78 0.89 0.99 1.12 1.02 1.29 1.43 1.53 1.55 1.36 1.47 2.39 2.20 3.68 1.79 1.75 2.10 2.22 3.41 2.25
0.02 0.02 0.02 0.02 0.02 0.01 0.02 0.02 0.02 0.03 1.11 0.53 0.87 1.32 0.08 0.62 0.83 0.11 0.12 0.99 1.08 2.83 1.95 0.76 1.43 1.27 1.42 1.74 1.75 2.13 1.94 2.17 2.24 2.51 1.16 2.44 3.63 2.63 2.00 3.09 1.95 2.41 2.74 2.39
0.13 0.14 0.06 0.15 0.02 0.20 0.02 0.02 0.05 0.06 0.06 0.07 0.04 0.04 0.03 0.18 0.66 0.40 0.62 0.70 1.55 0.89 1.07 1.63 1.45 1.75 2.58 2.66 2.40 2.51 2.48 2.10 2.40 2.82 1.99 3.12 2.89 4.29 3.60 2.72 3.23 3.29 3.29 2.87
0.02 0.21 0.18 0.03 0.11 0.16 0.16 0.17 0.20 0.22 0.19 0.57 0.40 1.64 1.06 0.58 0.50 0.51 0.84 1.43 0.65 1.69 0.90 2.57 3.52 3.42 3.05 2.07 2.36 2.44 1.79 1.32 1.86 1.91 2.25 2.26 2.29 1.85 2.30 2.13 2.94 3.75 4.72 5.14
0.18 0.05 0.17 0.16 0.14 0.17 0.18 0.18 0.31 0.41 0.63 0.98 1.07 1.09 0.72 1.21 1.62 1.35 2.13 2.18 2.15 2.51 2.63 3.23 2.84 2.69 1.65 2.65 2.16 1.84 1.72 1.78 2.78 1.46 2.56 3.03 2.93 4.13 3.79 3.86 4.42 4.82 4.06 3.52
SL_Ratio
nan nan nan nan nan nan nan nan 3.3 nan nan nan nan nan nan nan nan nan nan nan nan nan nan nan nan nan nan nan nan nan nan nan nan nan nan nan nan nan nan nan nan nan nan nan
nan nan nan nan nan nan nan nan nan nan nan nan nan nan nan nan nan nan nan nan nan nan nan nan nan nan nan nan nan nan nan nan nan nan nan nan nan nan nan nan nan nan nan nan
3.8 nan nan 4.3 nan nan nan nan nan nan nan nan nan nan nan nan nan nan nan nan nan nan nan nan nan nan nan nan nan nan nan nan nan nan nan nan nan nan nan nan nan nan nan nan
3.7 3.8 5.6 3.3 nan nan nan nan nan nan nan nan nan nan nan nan nan nan nan nan nan nan nan nan nan nan nan nan nan nan nan nan nan nan nan nan nan nan nan nan nan nan nan nan
4.1 3.9 3.5 nan nan nan nan nan nan nan nan nan nan nan nan nan nan nan nan nan nan nan nan nan nan nan nan nan nan nan nan nan nan nan nan nan nan nan nan nan nan nan nan nan
3.7 4.9 5.2 nan nan nan nan 2.9 nan nan nan nan nan nan nan nan nan nan nan nan nan nan nan nan nan nan nan nan nan nan nan nan nan nan nan nan nan nan nan nan nan 2.6 2.7 2.7
3.5 4.2 4.3 nan nan nan 3.9 3.5 nan nan nan nan nan nan nan nan nan nan nan nan nan nan nan nan nan nan nan 2.6 2.0 nan nan nan nan nan nan nan nan nan nan 2.5 2.7 2.9 2.9 2.5
3.7 4.3 5.6 nan nan nan 2.7 nan nan nan nan nan nan nan nan nan nan nan nan nan nan nan nan nan nan nan nan 2.3 2.6 nan 2.6 nan nan nan nan nan nan nan nan 2.9 2.8 3.2 3.2 3.0
3.7 3.6 nan nan nan nan nan nan nan nan nan nan nan nan nan nan nan nan nan nan nan nan nan nan nan nan nan 2.2 nan 2.6 2.4 2.5 2.4 nan 2.6 nan nan 2.6 2.7 3.0 3.0 3.2 3.1 3.3
3.3 nan nan nan nan nan nan nan nan nan nan nan nan nan nan nan nan nan nan nan nan nan nan nan nan nan nan nan nan nan 0.0 2.2 2.2 2.5 2.3 2.4 2.5 2.5 2.5 2.8 2.8 2.8 3.2 3.3
nan nan nan nan nan nan nan nan nan nan nan nan nan nan nan nan nan nan nan nan nan nan nan nan nan nan nan nan nan nan nan nan nan 2.6 2.6 2.5 2.5 2.5 2.5 2.5 2.7 2.8 2.8 2.8
2.6 nan nan nan nan nan nan nan nan nan nan nan nan nan nan nan nan nan nan nan nan nan nan nan nan nan nan nan nan nan nan 2.7 2.5 2.5 2.5 2.5 2.5 2.6 nan nan nan nan nan 2.5
nan nan nan nan nan nan nan nan nan nan nan nan nan nan nan nan nan nan nan nan nan nan nan nan nan nan nan nan nan nan nan nan 2.5 2.5 2.5 2.5 2.6 2.8 3.2 2.8 nan nan nan nan
nan nan nan nan nan nan nan nan nan nan nan nan nan nan nan nan nan nan nan nan nan nan nan nan nan 2.8 2.5 5.0 2.5 2.5 2.5 nan 2.5 2.5 2.5 2.5 2.5 2.6 2.7 3.0 3.5 3.4 nan nan
nan nan nan nan nan nan nan nan nan nan nan nan nan nan nan nan nan nan nan nan nan nan nan nan nan nan nan nan nan nan 2.5 2.5 2.5 2.5 2.5 2.5 2.7 3.0 3.1 3.3 3.4 3.6 3.7 3.7
nan nan nan nan nan nan nan nan nan nan nan nan nan nan nan nan nan nan nan nan 3.0 4.0 6.0 4.1 5.9 4.7 3.0 2.3 2.5 2.5 2.5 2.5 2.5 2.7 2.9 3.1 3.1 3.3 3.6 3.6 3.7 3.6 3.8 3.7
nan 3.8 nan 0.0 nan nan nan nan nan nan 4.7 4.7 4.8 4.8 4.6 4.9 4.9 5.0 5.7 5.6 4.7 4.5 4.8 4.7 4.3 3.4 3.9 3.0 3.8 2.5 2.5 2.6 nan 2.8 3.0 3.2 3.4 3.6 3.6 3.7 3.7 3.7 3.5 3.5
nan nan nan nan nan nan 4.4 4.5 4.7 4.7 4.8 4.8 4.8 3.4 3.4 3.5 5.1 5.2 5.0 4.6 4.5 4.4 4.2 4.1 4.1 4.2 4.2 3.3 3.3 2.8 2.9 2.9 3.0 3.0 3.1 3.5 3.4 3.3 3.5 3.6 3.7 3.8 3.8 3.9
nan nan nan nan nan nan 4.7 4.8 4.7 4.7 3.9 3.8 3.5 3.9 3.8 3.8 4.2 4.1 4.1 4.1 4.0 4.4 4.2 4.3 nan 4.5 4.0 4.3 3.2 3.0 3.0 2.9 3.2 3.3 3.2 3.1 3.3 3.5 3.6 3.5 3.6 3.4 3.8 4.2
3.8 3.2 4.1 4.6 4.2 4.2 5.1 4.9 4.3 4.1 3.7 3.8 3.6 3.8 4.1 4.1 3.9 4.1 4.2 4.4 4.2 3.9 4.0 4.1 4.3 4.1 4.0 4.0 3.1 2.9 2.8 2.8 3.3 3.3 3.3 3.6 3.3 3.3 3.4 3.0 3.8 3.6 3.4 3.5
4.1 3.9 3.9 4.1 4.2 3.8 3.9 3.7 4.0 4.4 4.3 4.0 3.9 4.1 4.3 4.1 4.2 4.2 4.3 4.2 4.9 4.4 4.1 3.3 3.6 3.4 3.3 3.0 3.1 3.0 3.0 3.1 3.1 3.4 3.4 3.3 3.3 3.4 3.6 3.4 3.4 3.4 3.4 3.5
3.7 4.0 3.9 4.0 4.2 4.3 4.1 3.9 4.0 4.3 4.3 4.3 4.1 4.1 4.3 4.5 4.6 4.6 4.4 4.3 4.3 3.0 3.6 3.6 3.7 3.1 3.1 3.0 3.2 3.0 3.3 3.3 3.4 3.5 3.7 3.5 3.7 3.7 3.8 3.7 3.8 3.6 3.7 3.7
3.5 3.3 3.8 4.1 4.1 3.9 4.2 4.3 4.3 4.1 4.7 4.7 4.7 4.3 3.9 3.9 3.9 4.0 4.3 5.3 3.9 3.1 3.7 3.6 3.1 3.0 3.0 3.2 3.1 3.2 3.3 3.5 3.7 4.0 4.0 4.1 4.2 4.2 4.7 4.6 4.3 4.5 4.5 4.7
3.5 3.5 3.8 3.9 4.1 4.2 4.3 4.3 4.4 4.6 4.6 4.7 4.9 4.7 4.1 3.8 3.5 3.9 4.1 3.0 3.0 3.0 3.5 3.7 3.4 3.0 3.0 3.7 3.9 3.9 3.9 4.0 4.2 4.4 4.8 3.1 4.3 4.7 4.9 4.8 5.5 5.0 5.1 5.1
4.3 4.1 4.1 4.3 4.3 4.0 4.3 4.4 4.3 4.4 4.5 4.4 4.9 4.6 4.7 4.1 3.6 4.3 3.7 4.1 3.1 3.5 4.0 3.2 3.0 3.0 4.1 4.1 4.3 4.4 4.5 4.8 4.8 4.7 5.1 4.8 5.0 4.8 4.9 5.5 5.8 5.3 5.8 5.8
4.0 3.7 3.8 4.2 3.8 3.8 3.9 4.0 4.2 4.2 4.2 4.1 4.6 3.9 3.8 4.1 4.4 4.7 4.6 3.5 4.9 3.2 5.1 4.4 4.7 4.4 4.3 4.7 4.7 4.8 5.2 5.4 5.3 5.6 5.8 5.9 6.2 6.5 6.5 6.6 6.3 6.0 5.9 6.0
3.9 3.7 3.9 3.9 4.0 4.1 4.1 4.2 4.1 4.3 3.7 4.0 4.4 4.5 4.6 4.9 5.1 4.3 3.5 5.0 5.2 5.2 5.2 4.9 5.2 3.8 5.6 5.1 5.5 6.0 6.2 6.2 3.7 6.8 6.5 6.2 6.5 6.1 6.6 6.6 6.7 6.3 6.8 7.2